Weather History for Crestview, FL

Change the Weather History Date:

Wednesday, February 20, 2013

  Actual Average Record
Temperature  
Mean Temperature 45 °F -  
Max Temperature 58 °F - - ()
Min Temperature 32 °F - - ()
Degree Days  
Heating Degree Days 20    
Moisture  
Dew Point 26 °F    
Average Humidity 53    
Maximum Humidity 84    
Minimum Humidity 23    
Precipitation  
Precipitation 0.00 in - - ()
Sea Level Pressure  
Sea Level Pressure 30.17 in    
Wind  
Wind Speed 5 mph (NNE)    
Max Wind Speed 9 mph    
Max Gust Speed -    
Visibility 10 miles    
Events      
T = Trace of Precipitation, MM = Missing Value Source: NWS Daily Summary

Daily Weather History Graph

Daily Weather History Graph

Search for Another Location

Airport:

Trip Planner

Search our weather history database for the weather conditions in past years. The results will help you decide how hot, cold, wet, or windy it might be!

Date:

Astronomy

Feb. 20, 2013 Rise Set
Actual Time 6:21 AM CST 5:38 PM CST
Civil Twilight 5:57 AM CST 6:02 PM CST
Nautical Twilight 5:29 AM CST 6:30 PM CST
Astronomical Twilight 5:01 AM CST 6:58 PM CST
Moon 1:10 PM CST (2/20) 2:29 AM CST (2/20)
Length of Visible Light 12h 05m
Length of Day
11h 16m
Waxing Gibbous, 76% of the Moon is Illuminated
Feb 20
Waxing Gibbous
Feb 25
Full
Mar 4
Last Quarter
Mar 11
New
Mar 19
First Quarter

Hourly Weather History & Observations

Time (CST) Temp. Windchill Dew Point Humidity Pressure Visibility Wind Dir Wind Speed Gust Speed Precip Events Conditions
12:58 AM 38.1 °F 34.6 °F 28.0 °F 67% 30.19 in 10.0 mi NNW 4.6 mph - N/A   Clear
1:58 AM 34.5 °F 30.4 °F 27.5 °F 76% 30.19 in 10.0 mi NW 4.6 mph - N/A   Clear
2:58 AM 36.7 °F 30.5 °F 27.1 °F 68% 30.20 in 10.0 mi NW 8.1 mph - N/A   Clear
3:58 AM 33.3 °F 27.9 °F 26.8 °F 77% 30.19 in 10.0 mi NNW 5.8 mph - N/A   Clear
4:58 AM 32.2 °F 26.7 °F 27.0 °F 81% 30.21 in 10.0 mi North 5.8 mph - N/A   Clear
5:58 AM 32.2 °F 28.9 °F 25.5 °F 76% 30.20 in 10.0 mi NNE 3.5 mph - N/A   Clear
6:58 AM 34.0 °F 31.0 °F 25.9 °F 72% 30.21 in 10.0 mi NE 3.5 mph - N/A   Clear
7:58 AM 39.4 °F 34.5 °F 26.2 °F 59% 30.22 in 10.0 mi NE 6.9 mph - N/A   Clear
8:55 AM 44.8 °F 39.9 °F 21.0 °F 39% 30.15 in 10.0 mi NNE 9.2 mph - N/A   Mostly Cloudy
9:56 AM 48.4 °F - 17.2 °F 29% 30.04 in 10.0 mi NE 8.1 mph - N/A   Mostly Cloudy
10:53 AM 50.0 °F - 17.6 °F 28% 30.24 in 10.0 mi NNE 8.1 mph - N/A   Partly Cloudy
10:56 AM 50.4 °F - 17.2 °F 27% 30.23 in 10.0 mi NE 8.1 mph - N/A   Mostly Cloudy
11:53 AM 53.6 °F - 21.2 °F 28% 30.20 in 10.0 mi North 9.2 mph - N/A   Partly Cloudy
11:59 AM 53.8 °F - 21.6 °F 28% 30.21 in 10.0 mi North 8.1 mph - N/A   Mostly Cloudy
12:57 PM 56.1 °F - 18.5 °F 23% 30.17 in 10.0 mi NNE 6.9 mph - N/A   Mostly Cloudy
1:57 PM 57.4 °F - 19.2 °F 23% 30.14 in 10.0 mi NNW 5.8 mph - N/A   Mostly Cloudy
2:55 PM 58.3 °F - 22.5 °F 25% 30.14 in 10.0 mi North 8.1 mph - N/A   Mostly Cloudy
3:56 PM 57.7 °F - 22.6 °F 26% 30.14 in 10.0 mi NNE 5.8 mph - N/A   Mostly Cloudy
4:55 PM 57.9 °F - 24.8 °F 28% 30.12 in 10.0 mi NNE 4.6 mph - N/A   Mostly Cloudy
5:55 PM 49.6 °F - 30.7 °F 48% 30.13 in 10.0 mi East 2.3 mph - N/A   Mostly Cloudy
6:55 PM 44.2 °F - 32.7 °F 64% 30.14 in 10.0 mi Calm Calm - N/A   Scattered Clouds
7:55 PM 41.4 °F - 33.6 °F 74% 30.14 in 10.0 mi Calm Calm - N/A   Mostly Cloudy
8:59 PM 39.6 °F - 34.2 °F 81% 30.15 in 10.0 mi Calm Calm - N/A   Mostly Cloudy
9:55 PM 37.0 °F - 32.4 °F 83% 30.15 in 10.0 mi Calm Calm - N/A   Partly Cloudy
10:59 PM 36.3 °F - 32.0 °F 84% 30.14 in 10.0 mi NE 2.3 mph - N/A   Scattered Clouds
11:55 PM 37.8 °F 34.2 °F 31.3 °F 77% 30.10 in 10.0 mi ESE 4.6 mph - N/A   Scattered Clouds